Regional Weather Roundup
Issued by NWS Boston, MA

Current Version | Previous Version | Text Only | Print | Product List | Glossary On
Versions: 1 2 3 4 5 6 7 8 9 10 11 12 13 14 15 16 17 18 19 20 21 22 23 24 25 26 27 28 29 30 31 32 33 34 35 36 37 38 39 40 41 42 43 44 45 46 47 48 49 50
000 ASUS41 KBOX 181510 RWRBOX REGIONAL WEATHER ROUNDUP NATIONAL WEATHER SERVICE TAUNTON MA 1100 AM EDT SAT APR 18 2015 NOTE: "FAIR" INDICATES FEW OR NO CLOUDS BELOW 12,000 FEET WITH NO SIGNIFICANT WEATHER AND/OR OBSTRUCTIONS TO VISIBILITY. THE FOLLOWING OBSERVATION LOCATIONS DO NOT REPORT PRESENT WEATHER...PROVINCETOWN... SMITHFIELD...BLOCK ISLAND...KEENE...AND OXFORD. MAZALL-181600- EASTERN MASSACHUSETTS CITY SKY/WX TMP DP RH WIND PRES REMARKS BOSTON SUNNY 57 38 48 E16 29.96S BEVERLY SUNNY 60 36 40 SE9 29.95S LAWRENCE SUNNY 61 34 36 E9 29.96F BEDFORD MOSUNNY 66 43 43 VRB7 29.93F BLUE HILL N/A 63 44 50 VRB7 29.94R NORWOOD SUNNY 66 44 45 VRB6 29.94S MARSHFIELD SUNNY 57 43 58 N5 29.97R PLYMOUTH SUNNY 63 44 50 NE9 29.95S TAUNTON SUNNY 68 44 42 CALM 29.93F NEW BEDFORD SUNNY 67 44 43 MISG 29.93F $$ MAZALL-181600- CAPE COD AND THE ISLANDS CITY SKY/WX TMP DP RH WIND PRES REMARKS FALMOUTH SUNNY 64 43 45 VRB3 29.94F HYANNIS SUNNY 61 45 55 VRB6 29.93S CHATHAM SUNNY 61 49 64 SW8 29.95R PROVINCETOWN SUNNY 52 43 71 N7 29.96R NANTUCKET SUNNY 60 48 64 SW9 29.94F MARTHAS VNYRD SUNNY 65 48 54 S9 29.94S $$ MAZALL-181600- CENTRAL AND WESTERN MASSACHUSETTS CITY SKY/WX TMP DP RH WIND PRES REMARKS WORCESTER SUNNY 62 37 39 W14G20 29.96S FITCHBURG SUNNY 66 40 38 W10 29.94F ORANGE SUNNY 63 41 44 W8 29.94F SPRINGFIELD SUNNY 67 40 37 W15G23 29.93F WESTFIELD SUNNY 69 39 33 VRB7G22 29.94F NORTH ADAMS SUNNY 64 38 38 W13G20 29.93F PITTSFIELD SUNNY 61 42 49 W12G21 29.94F $$ RIZALL-181600- RHODE ISLAND CITY SKY/WX TMP DP RH WIND PRES REMARKS PROVIDENCE MOSUNNY 69 43 38 NW8 29.94F NEWPORT SUNNY 63 45 51 W5 29.95S BLOCK ISLAND SUNNY 61 46 59 W10 29.97F SMITHFIELD SUNNY 66 39 37 NW7G18 29.94F WESTERLY SUNNY 61 47 59 SW7 29.97S $$ CTZALL-181600- CONNECTICUT CITY SKY/WX TMP DP RH WIND PRES REMARKS BRADLEY INTL MOSUNNY 70 40 33 W10G22 29.94F HARTFORD SUNNY 66 46 48 SE7G16 29.95F BRIDGEPORT SUNNY 60 47 61 SW12 29.98F DANBURY SUNNY 66 45 46 SW9 29.99F GROTON SUNNY 54 44 69 SW8 29.96S NEW HAVEN SUNNY 59 47 64 SW8 29.97F CHESTER FAIR 66 41 39 W6 29.97F MERIDEN SUNNY 70 41 34 W7 29.96F WILLIMANTIC SUNNY 67 45 45 W12 29.96S OXFORD SUNNY 63 45 51 W7 29.99F $$ MEZ002-015-021-024-NHZ003-005-008-011-012-014-VTZ005-008-181600- NORTHERN NEW ENGLAND CITY SKY/WX TMP DP RH WIND PRES REMARKS PORTLAND ME PTSUNNY 51 34 52 SE12 29.98R BANGOR ME PTSUNNY 49 27 42 N12 29.97S CONCORD NH SUNNY 62 42 47 S7 29.92F MANCHESTER NH MOSUNNY 65 43 44 CALM 29.92F NASHUA NH PTSUNNY 64 43 46 CALM 29.94F PORTSMOUTH NH MOSUNNY 55 33 43 E14 29.96R JAFFREY NH SUNNY 60 40 47 W9 29.94F KEENE NH SUNNY 61 43 51 W6 29.93F BURLINGTON VT MOSUNNY 53 28 38 SE5 29.91F MT. WASHINGTON NOT AVBL $$ NYZ052-076-181600- EASTERN NEW YORK CITY SKY/WX TMP DP RH WIND PRES REMARKS ALBANY MOSUNNY 66 41 40 SW8 29.94F NEW YORK CITY MOSUNNY 69 43 38 W6 29.99S $$ ANZALL-181600- MARINE OBSERVATIONS STATION/POSITION TIME TEMP WIND PRES VSBY WAVE AIR SEA DIR/SP/G HT/PER (UTC) (F) (DEG/KT/KT) (MB) (MI) (FT/S) BOSTON BUOY 1450 47 44 350/ 8/ 10 1015.0R 2/11 BUZZARDS BAY 1500 250/ 15/ 15 1015.1R NANTUCKET SOUND 1450 47 45 220/ 6/ 8 1014.0F 1/ 9 MASS BAY-STELLWA 1404 47 44 350/ 4/ 6 N/A 1 7/8 2/11 ISLE OF SHOALS 1500 45 60/ 13/ 15 1014.6S S OF BLOCK IS 1408 41 N/A 3/ 7 $$ ......................KEY......................... SKY/WX - SKY CONDITION/PRESENT WEATHER TMP - TEMPERATURE IN FAHRENHEIT DWPT - DEWPOINT IN FAHRENHEIT RH - RELATIVE HUMIDITY IN PERCENT WIND - DIRECTION AND SPEED IN MPH PRES - MEAN SEA LEVEL PRESSURE IN INCHES OF HG WCI - WIND CHILL INDEX VSB - VISIBILITY IN MILES HX - HEAT INDEX TC - TEMPERATURE IN CELSIUS VRB - VARIABLE WIND DIRECTION N/A - NOT AVAILABLE

USA.gov is the U.S. government's official web portal to all federal, state and local government web resources and services.